Weather History for KEBG - November, 2013

Change the Weather History Date:

Tuesday, November 5, 2013

  Actual Average (KMFE) Record (KMFE)
Temperature  
Mean Temperature 79 °F 72 °F  
Max Temperature 90 °F 83 °F 97 °F (1988)
Min Temperature 68 °F 62 °F 38 °F (1887)
Degree Days  
Heating Degree Days 0 1  
Month to date heating degree days 5  
Since 1 July heating degree days 10  
Cooling Degree Days 14 8  
Month to date cooling degree days 44  
Year to date cooling degree days 4226  
Growing Degree Days 29 (Base 50)    
Moisture  
Dew Point 67 °F    
Average Humidity 70    
Maximum Humidity 88    
Minimum Humidity 44    
Precipitation  
Precipitation 0.00 in 0.04 in 0.95 in (1998)
Month to date precipitation 0.21  
Year to date precipitation 20.33  
Sea Level Pressure  
Sea Level Pressure 29.93 in    
Wind  
Wind Speed 6 mph (SE)    
Max Wind Speed 20 mph    
Max Gust Speed 22 mph    
Visibility 8 miles    
Events      
T = Trace of Precipitation, MM = Missing Value Source: NWS Daily Summary

Daily Weather History Graph

Daily Weather History Graph

Search for Another Location

Airport or City:

Trip Planner

Search our weather history database for the weather conditions in past years. The results will help you decide how hot, cold, wet, or windy it might be!

Date:

Astronomy

Nov. 05, 2013 Rise Set
Actual Time 6:44 AM CST 5:47 PM CST
Civil Twilight 6:20 AM CST 6:11 PM CST
Nautical Twilight 5:52 AM CST 6:38 PM CST
Astronomical Twilight 5:25 AM CST 7:06 PM CST
Moon 8:53 AM CST (11/5) 7:58 PM CST (11/5)
Length of Visible Light 11h 50m
Length of Day
11h 02m
Waxing Crescent, 7% of the Moon is Illuminated
Nov 5
Waxing Crescent
Nov 9
First Quarter
Nov 17
Full
Nov 25
Last Quarter
Dec 2
New

Hourly Weather History & Observations

Time (CST) Temp. Heat Index Dew Point Humidity Pressure Visibility Wind Dir Wind Speed Gust Speed Precip Events Conditions
12:15 AM 70.9 °F - 63.3 °F 77% 29.97 in 10.0 mi SE 3.5 mph - N/A   Clear
12:35 AM 70.3 °F - 63.1 °F 78% 29.96 in 10.0 mi SE 3.5 mph - N/A   Clear
12:55 AM 70.2 °F - 63.3 °F 79% 29.96 in 10.0 mi Calm Calm - N/A   Mostly Cloudy
1:15 AM 70.2 °F - 63.5 °F 79% 29.96 in 10.0 mi Calm Calm - N/A   Overcast
1:35 AM 70.9 °F - 64.0 °F 79% 29.95 in 10.0 mi Calm Calm - N/A   Overcast
1:55 AM 71.6 °F - 64.4 °F 78% 29.95 in 10.0 mi Calm Calm - N/A   Overcast
2:15 AM 70.7 °F - 64.0 °F 79% 29.94 in 10.0 mi SE 3.5 mph - N/A   Overcast
2:35 AM 70.9 °F - 64.4 °F 80% 29.94 in 10.0 mi SE 3.5 mph - N/A   Overcast
2:55 AM 70.9 °F - 64.4 °F 80% 29.93 in 10.0 mi Calm Calm - N/A   Overcast
3:15 AM 70.7 °F - 64.4 °F 80% 29.92 in 10.0 mi SE 3.5 mph - N/A   Overcast
3:35 AM 69.8 °F - 64.4 °F 83% 29.91 in 10.0 mi SE 3.5 mph - N/A   Scattered Clouds
3:55 AM 69.8 °F - 64.4 °F 83% 29.91 in 10.0 mi Calm Calm - N/A   Scattered Clouds
4:15 AM 68.9 °F - 63.9 °F 84% 29.91 in 10.0 mi SE 3.5 mph - N/A   Scattered Clouds
4:35 AM 68.9 °F - 64.4 °F 86% 29.91 in 10.0 mi Calm Calm - N/A   Clear
4:55 AM 68.9 °F - 64.4 °F 86% 29.91 in 10.0 mi Calm Calm - N/A   Scattered Clouds
5:15 AM 69.3 °F - 64.9 °F 86% 29.91 in 10.0 mi Calm Calm - N/A   Mostly Cloudy
5:35 AM 69.3 °F - 64.8 °F 86% 29.92 in 10.0 mi Calm Calm - N/A   Overcast
5:55 AM 68.9 °F - 64.4 °F 86% 29.91 in 10.0 mi SE 3.5 mph - N/A   Mostly Cloudy
6:15 AM 68.9 °F - 58.8 °F 70% 29.93 in 10.0 mi Calm Calm - N/A   Scattered Clouds
6:35 AM 68.0 °F - 63.9 °F 87% 29.93 in 10.0 mi SE 3.5 mph - N/A   Scattered Clouds
6:55 AM 68.0 °F - 64.4 °F 88% 29.94 in 10.0 mi SE 4.6 mph - N/A   Scattered Clouds
7:15 AM 69.6 °F - 66.0 °F 88% 29.94 in 10.0 mi ESE 4.6 mph - N/A   Scattered Clouds
7:35 AM 71.2 °F - 67.1 °F 87% 29.95 in 10.0 mi ESE 3.5 mph - N/A   Mostly Cloudy
7:55 AM 73.4 °F - 67.6 °F 82% 29.95 in 10.0 mi SSE 5.8 mph - N/A   Scattered Clouds
8:15 AM 74.1 °F - 67.6 °F 80% 29.97 in 10.0 mi SSE 5.8 mph - N/A   Scattered Clouds
8:35 AM 76.3 °F - 68.0 °F 75% 29.97 in 10.0 mi South 5.8 mph - N/A   Scattered Clouds
8:55 AM 77.9 °F - 68.0 °F 71% 29.97 in 10.0 mi South 8.1 mph - N/A   Scattered Clouds
9:15 AM 79.9 °F - 68.4 °F 68% 29.98 in 10.0 mi SSE 9.2 mph - N/A   Scattered Clouds
9:35 AM 81.5 °F 84.6 °F 68.5 °F 65% 29.97 in 7.0 mi SSE 6.9 mph - N/A   Clear
9:55 AM 83.1 °F 86.6 °F 69.1 °F 62% 29.98 in 7.0 mi SSE 11.5 mph - N/A   Scattered Clouds
10:15 AM 83.8 °F 87.3 °F 68.5 °F 60% 29.97 in 7.0 mi SSE 10.4 mph 16.1 mph N/A   Scattered Clouds
10:35 AM 84.7 °F 87.9 °F 68.2 °F 57% 29.97 in 7.0 mi South 10.4 mph 18.4 mph N/A   Scattered Clouds
10:55 AM 84.2 °F 87.3 °F 68.2 °F 58% 29.96 in 7.0 mi SSE 10.4 mph - N/A   Mostly Cloudy
11:15 AM 86.4 °F 89.7 °F 68.0 °F 54% 29.95 in 7.0 mi SE 13.8 mph - N/A   Mostly Cloudy
11:35 AM 86.7 °F 89.6 °F 67.1 °F 52% 29.94 in 7.0 mi SE 13.8 mph 18.4 mph N/A   Scattered Clouds
11:55 AM 86.5 °F 89.3 °F 67.1 °F 52% 29.94 in 7.0 mi SSE 9.2 mph - N/A   Mostly Cloudy
12:15 PM 87.1 °F 89.9 °F 66.7 °F 51% 29.93 in 7.0 mi SE 13.8 mph 18.4 mph N/A   Mostly Cloudy
12:35 PM 88.2 °F 90.9 °F 66.7 °F 49% 29.91 in 7.0 mi SE 13.8 mph - N/A   Scattered Clouds
12:55 PM 89.6 °F 92.2 °F 66.6 °F 46% 29.90 in 7.0 mi SE 13.8 mph 18.4 mph N/A   Scattered Clouds
1:15 PM 89.8 °F 92.5 °F 66.2 °F 46% 29.90 in 10.0 mi SSE 16.1 mph 20.7 mph N/A   Scattered Clouds
1:35 PM 88.5 °F 91.2 °F 66.4 °F 48% 29.89 in 7.0 mi SE 13.8 mph - N/A   Scattered Clouds
1:55 PM 90.5 °F 92.9 °F 65.7 °F 44% 29.88 in 7.0 mi SSE 16.1 mph 20.7 mph N/A   Scattered Clouds
2:15 PM 87.8 °F 90.4 °F 66.6 °F 49% 29.87 in 10.0 mi SE 15.0 mph - N/A   Mostly Cloudy
2:35 PM 88.0 °F 90.7 °F 66.6 °F 49% 29.87 in 7.0 mi SSE 15.0 mph - N/A   Overcast
2:55 PM 89.2 °F 92.0 °F 66.6 °F 47% 29.87 in 5.0 mi SE 18.4 mph - N/A   Haze
3:15 PM 88.9 °F 91.4 °F 66.6 °F 47% 29.87 in 7.0 mi SE 15.0 mph 21.9 mph N/A   Clear
3:35 PM 89.1 °F 91.3 °F 66.0 °F 46% 29.87 in 7.0 mi SSE 16.1 mph 20.7 mph N/A   Clear
3:55 PM 88.9 °F 90.3 °F 64.6 °F 44% 29.86 in 7.0 mi SSE 17.3 mph - N/A   Clear
4:15 PM 88.9 °F 91.4 °F 66.2 °F 47% 29.86 in 7.0 mi SE 13.8 mph 19.6 mph N/A   Scattered Clouds
4:35 PM 86.7 °F 88.7 °F 65.5 °F 49% 29.87 in 7.0 mi SE 11.5 mph - N/A   Scattered Clouds
4:55 PM 86.5 °F 89.3 °F 67.1 °F 52% 29.87 in 7.0 mi SE 19.6 mph - N/A   Clear
5:15 PM 85.1 °F 87.9 °F 67.5 °F 55% 29.87 in 7.0 mi SE 13.8 mph - N/A   Scattered Clouds
5:35 PM 83.7 °F 87.0 °F 68.5 °F 60% 29.88 in 7.0 mi SE 13.8 mph - N/A   Clear
5:55 PM 82.6 °F 85.7 °F 68.4 °F 62% 29.89 in 7.0 mi SE 13.8 mph 19.6 mph N/A   Clear
6:15 PM 81.5 °F 84.2 °F 68.0 °F 63% 29.89 in 10.0 mi SE 13.8 mph - N/A   Clear
6:35 PM 80.8 °F 83.5 °F 68.2 °F 65% 29.90 in 7.0 mi SE 10.4 mph - N/A   Clear
6:55 PM 80.1 °F 82.8 °F 68.7 °F 68% 29.91 in 7.0 mi SE 8.1 mph - N/A   Clear
7:15 PM 79.3 °F - 68.9 °F 70% 29.92 in 7.0 mi SE 8.1 mph - N/A   Clear
7:35 PM 78.8 °F - 68.9 °F 72% 29.92 in 7.0 mi SE 10.4 mph - N/A   Clear
7:55 PM 78.8 °F - 68.9 °F 72% 29.93 in 7.0 mi SE 10.4 mph - N/A   Clear
8:15 PM 78.8 °F - 69.3 °F 72% 29.94 in 10.0 mi SE 10.4 mph - N/A   Clear
8:35 PM 78.4 °F - 69.8 °F 75% 29.94 in 7.0 mi SE 8.1 mph - N/A   Clear
8:55 PM 77.9 °F - 69.8 °F 76% 29.95 in 7.0 mi SE 6.9 mph - N/A   Clear
9:15 PM 76.6 °F - 69.8 °F 79% 29.96 in 7.0 mi SE 5.8 mph - N/A   Clear
9:35 PM 76.1 °F - 70.0 °F 81% 29.96 in 7.0 mi SE 4.6 mph - N/A   Clear
9:55 PM 75.6 °F - 70.2 °F 83% 29.96 in 7.0 mi SE 4.6 mph - N/A   Clear
10:15 PM 75.4 °F - 70.3 °F 84% 29.97 in 7.0 mi SE 5.8 mph - N/A   Scattered Clouds
10:35 PM 75.2 °F - 70.3 °F 85% 29.97 in 7.0 mi SE 4.6 mph - N/A   Clear
10:55 PM 75.2 °F - 70.7 °F 86% 29.97 in 5.0 mi SE 4.6 mph - N/A   Clear
11:15 PM 74.7 °F - 70.3 °F 86% 29.97 in 7.0 mi SE 4.6 mph - N/A   Clear
11:35 PM 74.7 °F - 70.5 °F 87% 29.97 in 7.0 mi SE 5.8 mph - N/A   Clear
11:55 PM 74.3 °F - 70.2 °F 87% 29.97 in 7.0 mi SE 4.6 mph - N/A   Scattered Clouds